Export;EXP-2023-01 (20230708 21:25);;;StationsCode;NL49551;NL49553
Periode;20030101 00:00 - 20040101 00:00;;;BeheerderMeetStation;GGD A'dam;GGD A'dam
Bron;https://data.rivm.nl/data/luchtmeetnet;;;StationsNaam;IJmuiden-Kanaaldijk;Wijk aan Zee-Burgemeester Rothestraat
Beschrijving data;https://data.rivm.nl/data/luchtmeetnet/readme.pdf;;;Latitude,Longitude;(52.463039,4.601842);(52.493992,4.601986)
Accreditatienummer;https://www.rva.nl/alle-geaccrediteerden/;;;StationsGebied;stad;stad
;;;;StationsType;industrie;industrie
;;;;Meetprincipe;Ultraviolet fluorescentie (UV-F);Ultraviolet fluorescentie (UV-F)
;;;;Meetopstelling;H2S metingen met een Thermo monitor;H2S metingen met een Thermo monitor
;;;;Accreditatienummer;nvt;nvt
Component;Bep.periode;Eenheid; Begindatumtijd;Einddatumtijd;NL49551;NL49553
H2S;uur;�g/m�;20030101 00:00;20030101 01:00;5;1
H2S;uur;�g/m�;20030101 01:00;20030101 02:00;1;2
H2S;uur;�g/m�;20030101 02:00;20030101 03:00;;
H2S;uur;�g/m�;20030101 03:00;20030101 04:00;0;1
H2S;uur;�g/m�;20030101 04:00;20030101 05:00;0;1
H2S;uur;�g/m�;20030101 05:00;20030101 06:00;0;1
H2S;uur;�g/m�;20030101 06:00;20030101 07:00;0;1
H2S;uur;�g/m�;20030101 07:00;20030101 08:00;0;2
H2S;uur;�g/m�;20030101 08:00;20030101 09:00;0;5
H2S;uur;�g/m�;20030101 09:00;20030101 10:00;0;4
H2S;uur;�g/m�;20030101 10:00;20030101 11:00;0;2
H2S;uur;�g/m�;20030101 11:00;20030101 12:00;0;1
H2S;uur;�g/m�;20030101 12:00;20030101 13:00;0;0
H2S;uur;�g/m�;20030101 13:00;20030101 14:00;0;0
H2S;uur;�g/m�;20030101 14:00;20030101 15:00;0;1
H2S;uur;�g/m�;20030101 15:00;20030101 16:00;0;2
H2S;uur;�g/m�;20030101 16:00;20030101 17:00;0;2
H2S;uur;�g/m�;20030101 17:00;20030101 18:00;0;8
H2S;uur;�g/m�;20030101 18:00;20030101 19:00;0;7
H2S;uur;�g/m�;20030101 19:00;20030101 20:00;0;4
H2S;uur;�g/m�;20030101 20:00;20030101 21:00;0;0
H2S;uur;�g/m�;20030101 21:00;20030101 22:00;0;0
H2S;uur;�g/m�;20030101 22:00;20030101 23:00;0;0
H2S;uur;�g/m�;20030101 23:00;20030102 00:00;0;0
H2S;uur;�g/m�;20030102 00:00;20030102 01:00;0;0
H2S;uur;�g/m�;20030102 01:00;20030102 02:00;0;0
H2S;uur;�g/m�;20030102 02:00;20030102 03:00;0;0
H2S;uur;�g/m�;20030102 03:00;20030102 04:00;0;0
H2S;uur;�g/m�;20030102 04:00;20030102 05:00;0;0
H2S;uur;�g/m�;20030102 05:00;20030102 06:00;0;0
H2S;uur;�g/m�;20030102 06:00;20030102 07:00;0;0
H2S;uur;�g/m�;20030102 07:00;20030102 08:00;0;1
H2S;uur;�g/m�;20030102 08:00;20030102 09:00;0;7
H2S;uur;�g/m�;20030102 09:00;20030102 10:00;0;11
H2S;uur;�g/m�;20030102 10:00;20030102 11:00;0;7
H2S;uur;�g/m�;20030102 11:00;20030102 12:00;0;8
H2S;uur;�g/m�;20030102 12:00;20030102 13:00;0;6
H2S;uur;�g/m�;20030102 13:00;20030102 14:00;0;1
H2S;uur;�g/m�;20030102 14:00;20030102 15:00;0;1
H2S;uur;�g/m�;20030102 15:00;20030102 16:00;0;0
H2S;uur;�g/m�;20030102 16:00;20030102 17:00;0;2
H2S;uur;�g/m�;20030102 17:00;20030102 18:00;0;3
H2S;uur;�g/m�;20030102 18:00;20030102 19:00;0;0
H2S;uur;�g/m�;20030102 19:00;20030102 20:00;0;0
H2S;uur;�g/m�;20030102 20:00;20030102 21:00;4;0
H2S;uur;�g/m�;20030102 21:00;20030102 22:00;3;0
H2S;uur;�g/m�;20030102 22:00;20030102 23:00;0;0
H2S;uur;�g/m�;20030102 23:00;20030103 00:00;0;0
H2S;uur;�g/m�;20030103 00:00;20030103 01:00;0;0
H2S;uur;�g/m�;20030103 01:00;20030103 02:00;2;0
H2S;uur;�g/m�;20030103 02:00;20030103 03:00;2;0
H2S;uur;�g/m�;20030103 03:00;20030103 04:00;;
H2S;uur;�g/m�;20030103 04:00;20030103 05:00;4;1
H2S;uur;�g/m�;20030103 05:00;20030103 06:00;2;1
H2S;uur;�g/m�;20030103 06:00;20030103 07:00;0;1
H2S;uur;�g/m�;20030103 07:00;20030103 08:00;0;1
H2S;uur;�g/m�;20030103 08:00;20030103 09:00;0;2
H2S;uur;�g/m�;20030103 09:00;20030103 10:00;0;1
H2S;uur;�g/m�;20030103 10:00;20030103 11:00;0;1
H2S;uur;�g/m�;20030103 11:00;20030103 12:00;0;1
H2S;uur;�g/m�;20030103 12:00;20030103 13:00;0;1
H2S;uur;�g/m�;20030103 13:00;20030103 14:00;0;1
H2S;uur;�g/m�;20030103 14:00;20030103 15:00;0;1
H2S;uur;�g/m�;20030103 15:00;20030103 16:00;0;1
H2S;uur;�g/m�;20030103 16:00;20030103 17:00;0;1
H2S;uur;�g/m�;20030103 17:00;20030103 18:00;0;1
H2S;uur;�g/m�;20030103 18:00;20030103 19:00;0;1
H2S;uur;�g/m�;20030103 19:00;20030103 20:00;2;1
H2S;uur;�g/m�;20030103 20:00;20030103 21:00;0;1
H2S;uur;�g/m�;20030103 21:00;20030103 22:00;0;1
H2S;uur;�g/m�;20030103 22:00;20030103 23:00;1;1
H2S;uur;�g/m�;20030103 23:00;20030104 00:00;0;1
H2S;uur;�g/m�;20030104 00:00;20030104 01:00;0;1
H2S;uur;�g/m�;20030104 01:00;20030104 02:00;0;1
H2S;uur;�g/m�;20030104 02:00;20030104 03:00;0;1
H2S;uur;�g/m�;20030104 03:00;20030104 04:00;1;0
H2S;uur;�g/m�;20030104 04:00;20030104 05:00;0;1
H2S;uur;�g/m�;20030104 05:00;20030104 06:00;0;1
H2S;uur;�g/m�;20030104 06:00;20030104 07:00;0;1
H2S;uur;�g/m�;20030104 07:00;20030104 08:00;0;1
H2S;uur;�g/m�;20030104 08:00;20030104 09:00;0;1
H2S;uur;�g/m�;20030104 09:00;20030104 10:00;0;1
H2S;uur;�g/m�;20030104 10:00;20030104 11:00;0;1
H2S;uur;�g/m�;20030104 11:00;20030104 12:00;0;0
H2S;uur;�g/m�;20030104 12:00;20030104 13:00;0;1
H2S;uur;�g/m�;20030104 13:00;20030104 14:00;0;1
H2S;uur;�g/m�;20030104 14:00;20030104 15:00;0;1
H2S;uur;�g/m�;20030104 15:00;20030104 16:00;1;1
H2S;uur;�g/m�;20030104 16:00;20030104 17:00;0;1
H2S;uur;�g/m�;20030104 17:00;20030104 18:00;0;1
H2S;uur;�g/m�;20030104 18:00;20030104 19:00;0;1
H2S;uur;�g/m�;20030104 19:00;20030104 20:00;1;1
H2S;uur;�g/m�;20030104 20:00;20030104 21:00;0;1
H2S;uur;�g/m�;20030104 21:00;20030104 22:00;0;1
H2S;uur;�g/m�;20030104 22:00;20030104 23:00;0;1
H2S;uur;�g/m�;20030104 23:00;20030105 00:00;0;1
H2S;uur;�g/m�;20030105 00:00;20030105 01:00;0;0
H2S;uur;�g/m�;20030105 01:00;20030105 02:00;0;0
H2S;uur;�g/m�;20030105 02:00;20030105 03:00;0;1
H2S;uur;�g/m�;20030105 03:00;20030105 04:00;0;9
H2S;uur;�g/m�;20030105 04:00;20030105 05:00;;
H2S;uur;�g/m�;20030105 05:00;20030105 06:00;0;3
H2S;uur;�g/m�;20030105 06:00;20030105 07:00;0;4
H2S;uur;�g/m�;20030105 07:00;20030105 08:00;0;8
H2S;uur;�g/m�;20030105 08:00;20030105 09:00;0;3
H2S;uur;�g/m�;20030105 09:00;20030105 10:00;0;2
H2S;uur;�g/m�;20030105 10:00;20030105 11:00;0;10
H2S;uur;�g/m�;20030105 11:00;20030105 12:00;0;8
H2S;uur;�g/m�;20030105 12:00;20030105 13:00;0;8
H2S;uur;�g/m�;20030105 13:00;20030105 14:00;0;4
H2S;uur;�g/m�;20030105 14:00;20030105 15:00;0;9
H2S;uur;�g/m�;20030105 15:00;20030105 16:00;0;14
H2S;uur;�g/m�;20030105 16:00;20030105 17:00;0;6
H2S;uur;�g/m�;20030105 17:00;20030105 18:00;0;1
H2S;uur;�g/m�;20030105 18:00;20030105 19:00;0;0
H2S;uur;�g/m�;20030105 19:00;20030105 20:00;1;0
H2S;uur;�g/m�;20030105 20:00;20030105 21:00;4;0
H2S;uur;�g/m�;20030105 21:00;20030105 22:00;0;0
H2S;uur;�g/m�;20030105 22:00;20030105 23:00;0;0
H2S;uur;�g/m�;20030105 23:00;20030106 00:00;0;0
H2S;uur;�g/m�;20030106 00:00;20030106 01:00;0;0
H2S;uur;�g/m�;20030106 01:00;20030106 02:00;1;0
H2S;uur;�g/m�;20030106 02:00;20030106 03:00;1;0
H2S;uur;�g/m�;20030106 03:00;20030106 04:00;1;0
H2S;uur;�g/m�;20030106 04:00;20030106 05:00;1;0
H2S;uur;�g/m�;20030106 05:00;20030106 06:00;1;0
H2S;uur;�g/m�;20030106 06:00;20030106 07:00;1;0
H2S;uur;�g/m�;20030106 07:00;20030106 08:00;1;0
H2S;uur;�g/m�;20030106 08:00;20030106 09:00;2;0
H2S;uur;�g/m�;20030106 09:00;20030106 10:00;0;0
H2S;uur;�g/m�;20030106 10:00;20030106 11:00;1;0
H2S;uur;�g/m�;20030106 11:00;20030106 12:00;1;0
H2S;uur;�g/m�;20030106 12:00;20030106 13:00;1;0
H2S;uur;�g/m�;20030106 13:00;20030106 14:00;1;0
H2S;uur;�g/m�;20030106 14:00;20030106 15:00;0;0
H2S;uur;�g/m�;20030106 15:00;20030106 16:00;1;0
H2S;uur;�g/m�;20030106 16:00;20030106 17:00;1;0
H2S;uur;�g/m�;20030106 17:00;20030106 18:00;1;0
H2S;uur;�g/m�;20030106 18:00;20030106 19:00;1;0
H2S;uur;�g/m�;20030106 19:00;20030106 20:00;1;0
H2S;uur;�g/m�;20030106 20:00;20030106 21:00;0;0
H2S;uur;�g/m�;20030106 21:00;20030106 22:00;0;0
H2S;uur;�g/m�;20030106 22:00;20030106 23:00;0;0
H2S;uur;�g/m�;20030106 23:00;20030107 00:00;0;0
H2S;uur;�g/m�;20030107 00:00;20030107 01:00;0;0
H2S;uur;�g/m�;20030107 01:00;20030107 02:00;0;0
H2S;uur;�g/m�;20030107 02:00;20030107 03:00;0;0
H2S;uur;�g/m�;20030107 03:00;20030107 04:00;0;0
H2S;uur;�g/m�;20030107 04:00;20030107 05:00;0;0
H2S;uur;�g/m�;20030107 05:00;20030107 06:00;;
H2S;uur;�g/m�;20030107 06:00;20030107 07:00;0;1
H2S;uur;�g/m�;20030107 07:00;20030107 08:00;0;1
H2S;uur;�g/m�;20030107 08:00;20030107 09:00;0;1
H2S;uur;�g/m�;20030107 09:00;20030107 10:00;0;1
H2S;uur;�g/m�;20030107 10:00;20030107 11:00;0;1
H2S;uur;�g/m�;20030107 11:00;20030107 12:00;0;1
H2S;uur;�g/m�;20030107 12:00;20030107 13:00;0;1
H2S;uur;�g/m�;20030107 13:00;20030107 14:00;0;1
H2S;uur;�g/m�;20030107 14:00;20030107 15:00;0;1
H2S;uur;�g/m�;20030107 15:00;20030107 16:00;0;0
H2S;uur;�g/m�;20030107 16:00;20030107 17:00;0;1
H2S;uur;�g/m�;20030107 17:00;20030107 18:00;0;1
H2S;uur;�g/m�;20030107 18:00;20030107 19:00;0;1
H2S;uur;�g/m�;20030107 19:00;20030107 20:00;0;1
H2S;uur;�g/m�;20030107 20:00;20030107 21:00;0;1
H2S;uur;�g/m�;20030107 21:00;20030107 22:00;0;1
H2S;uur;�g/m�;20030107 22:00;20030107 23:00;0;1
H2S;uur;�g/m�;20030107 23:00;20030108 00:00;0;1
H2S;uur;�g/m�;20030108 00:00;20030108 01:00;0;1
H2S;uur;�g/m�;20030108 01:00;20030108 02:00;0;1
H2S;uur;�g/m�;20030108 02:00;20030108 03:00;0;1
H2S;uur;�g/m�;20030108 03:00;20030108 04:00;0;1
H2S;uur;�g/m�;20030108 04:00;20030108 05:00;0;1
H2S;uur;�g/m�;20030108 05:00;20030108 06:00;0;1
H2S;uur;�g/m�;20030108 06:00;20030108 07:00;0;1
H2S;uur;�g/m�;20030108 07:00;20030108 08:00;0;1
H2S;uur;�g/m�;20030108 08:00;20030108 09:00;0;1
H2S;uur;�g/m�;20030108 09:00;20030108 10:00;0;0
H2S;uur;�g/m�;20030108 10:00;20030108 11:00;0;0
H2S;uur;�g/m�;20030108 11:00;20030108 12:00;0;1
H2S;uur;�g/m�;20030108 12:00;20030108 13:00;0;1
H2S;uur;�g/m�;20030108 13:00;20030108 14:00;0;1
H2S;uur;�g/m�;20030108 14:00;20030108 15:00;0;1
H2S;uur;�g/m�;20030108 15:00;20030108 16:00;0;1
H2S;uur;�g/m�;20030108 16:00;20030108 17:00;0;1
H2S;uur;�g/m�;20030108 17:00;20030108 18:00;0;1
H2S;uur;�g/m�;20030108 18:00;20030108 19:00;0;1
H2S;uur;�g/m�;20030108 19:00;20030108 20:00;0;1
H2S;uur;�g/m�;20030108 20:00;20030108 21:00;0;1
H2S;uur;�g/m�;20030108 21:00;20030108 22:00;0;0
H2S;uur;�g/m�;20030108 22:00;20030108 23:00;0;1
H2S;uur;�g/m�;20030108 23:00;20030109 00:00;0;1
H2S;uur;�g/m�;20030109 00:00;20030109 01:00;0;1
H2S;uur;�g/m�;20030109 01:00;20030109 02:00;0;1
H2S;uur;�g/m�;20030109 02:00;20030109 03:00;0;0
H2S;uur;�g/m�;20030109 03:00;20030109 04:00;0;1
H2S;uur;�g/m�;20030109 04:00;20030109 05:00;0;1
H2S;uur;�g/m�;20030109 05:00;20030109 06:00;0;0
H2S;uur;�g/m�;20030109 06:00;20030109 07:00;;
H2S;uur;�g/m�;20030109 07:00;20030109 08:00;0;1
H2S;uur;�g/m�;20030109 08:00;20030109 09:00;0;1
H2S;uur;�g/m�;20030109 09:00;20030109 10:00;1;1
H2S;uur;�g/m�;20030109 10:00;20030109 11:00;0;1
H2S;uur;�g/m�;20030109 11:00;20030109 12:00;0;0
H2S;uur;�g/m�;20030109 12:00;20030109 13:00;0;1
H2S;uur;�g/m�;20030109 13:00;20030109 14:00;0;0
H2S;uur;�g/m�;20030109 14:00;20030109 15:00;0;1
H2S;uur;�g/m�;20030109 15:00;20030109 16:00;1;1
H2S;uur;�g/m�;20030109 16:00;20030109 17:00;1;1
H2S;uur;�g/m�;20030109 17:00;20030109 18:00;2;1
H2S;uur;�g/m�;20030109 18:00;20030109 19:00;1;0
H2S;uur;�g/m�;20030109 19:00;20030109 20:00;0;1
H2S;uur;�g/m�;20030109 20:00;20030109 21:00;1;0
H2S;uur;�g/m�;20030109 21:00;20030109 22:00;0;1
H2S;uur;�g/m�;20030109 22:00;20030109 23:00;1;1
H2S;uur;�g/m�;20030109 23:00;20030110 00:00;1;1
H2S;uur;�g/m�;20030110 00:00;20030110 01:00;1;7
H2S;uur;�g/m�;20030110 01:00;20030110 02:00;0;18
H2S;uur;�g/m�;20030110 02:00;20030110 03:00;0;12
H2S;uur;�g/m�;20030110 03:00;20030110 04:00;0;8
H2S;uur;�g/m�;20030110 04:00;20030110 05:00;0;19
H2S;uur;�g/m�;20030110 05:00;20030110 06:00;0;21
H2S;uur;�g/m�;20030110 06:00;20030110 07:00;0;10
H2S;uur;�g/m�;20030110 07:00;20030110 08:00;0;1
H2S;uur;�g/m�;20030110 08:00;20030110 09:00;1;1
H2S;uur;�g/m�;20030110 09:00;20030110 10:00;1;1
H2S;uur;�g/m�;20030110 10:00;20030110 11:00;0;1
H2S;uur;�g/m�;20030110 11:00;20030110 12:00;1;1
H2S;uur;�g/m�;20030110 12:00;20030110 13:00;1;1
H2S;uur;�g/m�;20030110 13:00;20030110 14:00;1;1
H2S;uur;�g/m�;20030110 14:00;20030110 15:00;1;1
H2S;uur;�g/m�;20030110 15:00;20030110 16:00;1;1
H2S;uur;�g/m�;20030110 16:00;20030110 17:00;1;1
H2S;uur;�g/m�;20030110 17:00;20030110 18:00;1;1
H2S;uur;�g/m�;20030110 18:00;20030110 19:00;1;1
H2S;uur;�g/m�;20030110 19:00;20030110 20:00;1;1
H2S;uur;�g/m�;20030110 20:00;20030110 21:00;1;1
H2S;uur;�g/m�;20030110 21:00;20030110 22:00;1;1
H2S;uur;�g/m�;20030110 22:00;20030110 23:00;0;1
H2S;uur;�g/m�;20030110 23:00;20030111 00:00;1;1
H2S;uur;�g/m�;20030111 00:00;20030111 01:00;1;1
H2S;uur;�g/m�;20030111 01:00;20030111 02:00;1;1
H2S;uur;�g/m�;20030111 02:00;20030111 03:00;0;1
H2S;uur;�g/m�;20030111 03:00;20030111 04:00;0;1
H2S;uur;�g/m�;20030111 04:00;20030111 05:00;0;0
H2S;uur;�g/m�;20030111 05:00;20030111 06:00;0;0
H2S;uur;�g/m�;20030111 06:00;20030111 07:00;0;0
H2S;uur;�g/m�;20030111 07:00;20030111 08:00;;
H2S;uur;�g/m�;20030111 08:00;20030111 09:00;0;0
H2S;uur;�g/m�;20030111 09:00;20030111 10:00;0;0
H2S;uur;�g/m�;20030111 10:00;20030111 11:00;0;1
H2S;uur;�g/m�;20030111 11:00;20030111 12:00;1;15
H2S;uur;�g/m�;20030111 12:00;20030111 13:00;0;5
H2S;uur;�g/m�;20030111 13:00;20030111 14:00;0;1
H2S;uur;�g/m�;20030111 14:00;20030111 15:00;0;0
H2S;uur;�g/m�;20030111 15:00;20030111 16:00;0;0
H2S;uur;�g/m�;20030111 16:00;20030111 17:00;0;1
H2S;uur;�g/m�;20030111 17:00;20030111 18:00;0;1
H2S;uur;�g/m�;20030111 18:00;20030111 19:00;0;1
H2S;uur;�g/m�;20030111 19:00;20030111 20:00;0;1
H2S;uur;�g/m�;20030111 20:00;20030111 21:00;0;0
H2S;uur;�g/m�;20030111 21:00;20030111 22:00;2;0
H2S;uur;�g/m�;20030111 22:00;20030111 23:00;0;0
H2S;uur;�g/m�;20030111 23:00;20030112 00:00;0;0
H2S;uur;�g/m�;20030112 00:00;20030112 01:00;0;0
H2S;uur;�g/m�;20030112 01:00;20030112 02:00;0;0
H2S;uur;�g/m�;20030112 02:00;20030112 03:00;0;0
H2S;uur;�g/m�;20030112 03:00;20030112 04:00;0;0
H2S;uur;�g/m�;20030112 04:00;20030112 05:00;0;0
H2S;uur;�g/m�;20030112 05:00;20030112 06:00;0;0
H2S;uur;�g/m�;20030112 06:00;20030112 07:00;0;0
H2S;uur;�g/m�;20030112 07:00;20030112 08:00;0;0
H2S;uur;�g/m�;20030112 08:00;20030112 09:00;1;1
H2S;uur;�g/m�;20030112 09:00;20030112 10:00;1;1
H2S;uur;�g/m�;20030112 10:00;20030112 11:00;1;0
H2S;uur;�g/m�;20030112 11:00;20030112 12:00;2;1
H2S;uur;�g/m�;20030112 12:00;20030112 13:00;1;1
H2S;uur;�g/m�;20030112 13:00;20030112 14:00;1;1
H2S;uur;�g/m�;20030112 14:00;20030112 15:00;1;1
H2S;uur;�g/m�;20030112 15:00;20030112 16:00;1;1
H2S;uur;�g/m�;20030112 16:00;20030112 17:00;0;0
H2S;uur;�g/m�;20030112 17:00;20030112 18:00;0;1
H2S;uur;�g/m�;20030112 18:00;20030112 19:00;0;0
H2S;uur;�g/m�;20030112 19:00;20030112 20:00;0;0
H2S;uur;�g/m�;20030112 20:00;20030112 21:00;0;0
H2S;uur;�g/m�;20030112 21:00;20030112 22:00;0;0
H2S;uur;�g/m�;20030112 22:00;20030112 23:00;0;0
H2S;uur;�g/m�;20030112 23:00;20030113 00:00;0;0
H2S;uur;�g/m�;20030113 00:00;20030113 01:00;0;0
H2S;uur;�g/m�;20030113 01:00;20030113 02:00;0;0
H2S;uur;�g/m�;20030113 02:00;20030113 03:00;0;0
H2S;uur;�g/m�;20030113 03:00;20030113 04:00;0;0
H2S;uur;�g/m�;20030113 04:00;20030113 05:00;0;0
H2S;uur;�g/m�;20030113 05:00;20030113 06:00;0;0
H2S;uur;�g/m�;20030113 06:00;20030113 07:00;0;0
H2S;uur;�g/m�;20030113 07:00;20030113 08:00;0;0
H2S;uur;�g/m�;20030113 08:00;20030113 09:00;;
H2S;uur;�g/m�;20030113 09:00;20030113 10:00;0;1
H2S;uur;�g/m�;20030113 10:00;20030113 11:00;0;0
H2S;uur;�g/m�;20030113 11:00;20030113 12:00;0;1
H2S;uur;�g/m�;20030113 12:00;20030113 13:00;0;0
H2S;uur;�g/m�;20030113 13:00;20030113 14:00;1;0
H2S;uur;�g/m�;20030113 14:00;20030113 15:00;0;0
H2S;uur;�g/m�;20030113 15:00;20030113 16:00;0;0
H2S;uur;�g/m�;20030113 16:00;20030113 17:00;0;0
H2S;uur;�g/m�;20030113 17:00;20030113 18:00;0;0
H2S;uur;�g/m�;20030113 18:00;20030113 19:00;0;0
H2S;uur;�g/m�;20030113 19:00;20030113 20:00;0;0
H2S;uur;�g/m�;20030113 20:00;20030113 21:00;1;0
H2S;uur;�g/m�;20030113 21:00;20030113 22:00;0;0
H2S;uur;�g/m�;20030113 22:00;20030113 23:00;0;0
H2S;uur;�g/m�;20030113 23:00;20030114 00:00;0;0
H2S;uur;�g/m�;20030114 00:00;20030114 01:00;0;0
H2S;uur;�g/m�;20030114 01:00;20030114 02:00;0;0
H2S;uur;�g/m�;20030114 02:00;20030114 03:00;0;0
H2S;uur;�g/m�;20030114 03:00;20030114 04:00;0;0
H2S;uur;�g/m�;20030114 04:00;20030114 05:00;0;0
H2S;uur;�g/m�;20030114 05:00;20030114 06:00;0;0
H2S;uur;�g/m�;20030114 06:00;20030114 07:00;0;0
H2S;uur;�g/m�;20030114 07:00;20030114 08:00;0;0
H2S;uur;�g/m�;20030114 08:00;20030114 09:00;0;2
H2S;uur;�g/m�;20030114 09:00;20030114 10:00;0;1
H2S;uur;�g/m�;20030114 10:00;20030114 11:00;0;1
H2S;uur;�g/m�;20030114 11:00;20030114 12:00;0;1
H2S;uur;�g/m�;20030114 12:00;20030114 13:00;0;1
H2S;uur;�g/m�;20030114 13:00;20030114 14:00;0;0
H2S;uur;�g/m�;20030114 14:00;20030114 15:00;0;0
H2S;uur;�g/m�;20030114 15:00;20030114 16:00;0;0
H2S;uur;�g/m�;20030114 16:00;20030114 17:00;0;0
H2S;uur;�g/m�;20030114 17:00;20030114 18:00;0;1
H2S;uur;�g/m�;20030114 18:00;20030114 19:00;0;1
H2S;uur;�g/m�;20030114 19:00;20030114 20:00;0;1
H2S;uur;�g/m�;20030114 20:00;20030114 21:00;0;1
H2S;uur;�g/m�;20030114 21:00;20030114 22:00;0;1
H2S;uur;�g/m�;20030114 22:00;20030114 23:00;0;1
H2S;uur;�g/m�;20030114 23:00;20030115 00:00;0;2
H2S;uur;�g/m�;20030115 00:00;20030115 01:00;0;2
H2S;uur;�g/m�;20030115 01:00;20030115 02:00;0;1
H2S;uur;�g/m�;20030115 02:00;20030115 03:00;0;1
H2S;uur;�g/m�;20030115 03:00;20030115 04:00;1;1
H2S;uur;�g/m�;20030115 04:00;20030115 05:00;1;1
H2S;uur;�g/m�;20030115 05:00;20030115 06:00;0;1
H2S;uur;�g/m�;20030115 06:00;20030115 07:00;0;2
H2S;uur;�g/m�;20030115 07:00;20030115 08:00;0;2
H2S;uur;�g/m�;20030115 08:00;20030115 09:00;0;3
H2S;uur;�g/m�;20030115 09:00;20030115 10:00;;
H2S;uur;�g/m�;20030115 10:00;20030115 11:00;0;2
H2S;uur;�g/m�;20030115 11:00;20030115 12:00;0;4
H2S;uur;�g/m�;20030115 12:00;20030115 13:00;0;4
H2S;uur;�g/m�;20030115 13:00;20030115 14:00;0;2
H2S;uur;�g/m�;20030115 14:00;20030115 15:00;0;2
H2S;uur;�g/m�;20030115 15:00;20030115 16:00;0;2
H2S;uur;�g/m�;20030115 16:00;20030115 17:00;0;2
H2S;uur;�g/m�;20030115 17:00;20030115 18:00;0;1
H2S;uur;�g/m�;20030115 18:00;20030115 19:00;0;1
H2S;uur;�g/m�;20030115 19:00;20030115 20:00;0;2
H2S;uur;�g/m�;20030115 20:00;20030115 21:00;0;0
H2S;uur;�g/m�;20030115 21:00;20030115 22:00;0;1
H2S;uur;�g/m�;20030115 22:00;20030115 23:00;0;1
H2S;uur;�g/m�;20030115 23:00;20030116 00:00;0;0
H2S;uur;�g/m�;20030116 00:00;20030116 01:00;0;0
H2S;uur;�g/m�;20030116 01:00;20030116 02:00;0;0
H2S;uur;�g/m�;20030116 02:00;20030116 03:00;0;0
H2S;uur;�g/m�;20030116 03:00;20030116 04:00;0;0
H2S;uur;�g/m�;20030116 04:00;20030116 05:00;0;0
H2S;uur;�g/m�;20030116 05:00;20030116 06:00;0;0
H2S;uur;�g/m�;20030116 06:00;20030116 07:00;0;0
H2S;uur;�g/m�;20030116 07:00;20030116 08:00;0;0
H2S;uur;�g/m�;20030116 08:00;20030116 09:00;0;0
H2S;uur;�g/m�;20030116 09:00;20030116 10:00;1;0
H2S;uur;�g/m�;20030116 10:00;20030116 11:00;1;0
H2S;uur;�g/m�;20030116 11:00;20030116 12:00;0;0
H2S;uur;�g/m�;20030116 12:00;20030116 13:00;0;0
H2S;uur;�g/m�;20030116 13:00;20030116 14:00;0;0
H2S;uur;�g/m�;20030116 14:00;20030116 15:00;0;1
H2S;uur;�g/m�;20030116 15:00;20030116 16:00;0;3
H2S;uur;�g/m�;20030116 16:00;20030116 17:00;0;1
H2S;uur;�g/m�;20030116 17:00;20030116 18:00;0;1
H2S;uur;�g/m�;20030116 18:00;20030116 19:00;0;3
H2S;uur;�g/m�;20030116 19:00;20030116 20:00;0;4
H2S;uur;�g/m�;20030116 20:00;20030116 21:00;0;7
H2S;uur;�g/m�;20030116 21:00;20030116 22:00;1;7
H2S;uur;�g/m�;20030116 22:00;20030116 23:00;1;4
H2S;uur;�g/m�;20030116 23:00;20030117 00:00;0;3
H2S;uur;�g/m�;20030117 00:00;20030117 01:00;0;3
H2S;uur;�g/m�;20030117 01:00;20030117 02:00;1;7
H2S;uur;�g/m�;20030117 02:00;20030117 03:00;0;5
H2S;uur;�g/m�;20030117 03:00;20030117 04:00;0;8
H2S;uur;�g/m�;20030117 04:00;20030117 05:00;0;6
H2S;uur;�g/m�;20030117 05:00;20030117 06:00;0;6
H2S;uur;�g/m�;20030117 06:00;20030117 07:00;0;7
H2S;uur;�g/m�;20030117 07:00;20030117 08:00;0;9
H2S;uur;�g/m�;20030117 08:00;20030117 09:00;0;5
H2S;uur;�g/m�;20030117 09:00;20030117 10:00;0;14
H2S;uur;�g/m�;20030117 10:00;20030117 11:00;;
H2S;uur;�g/m�;20030117 11:00;20030117 12:00;0;7
H2S;uur;�g/m�;20030117 12:00;20030117 13:00;0;5
H2S;uur;�g/m�;20030117 13:00;20030117 14:00;0;9
H2S;uur;�g/m�;20030117 14:00;20030117 15:00;0;4
H2S;uur;�g/m�;20030117 15:00;20030117 16:00;0;11
H2S;uur;�g/m�;20030117 16:00;20030117 17:00;0;3
H2S;uur;�g/m�;20030117 17:00;20030117 18:00;0;1
H2S;uur;�g/m�;20030117 18:00;20030117 19:00;0;1
H2S;uur;�g/m�;20030117 19:00;20030117 20:00;0;4
H2S;uur;�g/m�;20030117 20:00;20030117 21:00;0;14
H2S;uur;�g/m�;20030117 21:00;20030117 22:00;0;4
H2S;uur;�g/m�;20030117 22:00;20030117 23:00;0;5
H2S;uur;�g/m�;20030117 23:00;20030118 00:00;0;5
H2S;uur;�g/m�;20030118 00:00;20030118 01:00;0;3
H2S;uur;�g/m�;20030118 01:00;20030118 02:00;0;2
H2S;uur;�g/m�;20030118 02:00;20030118 03:00;0;1
H2S;uur;�g/m�;20030118 03:00;20030118 04:00;0;1
H2S;uur;�g/m�;20030118 04:00;20030118 05:00;0;4
H2S;uur;�g/m�;20030118 05:00;20030118 06:00;0;5
H2S;uur;�g/m�;20030118 06:00;20030118 07:00;0;4
H2S;uur;�g/m�;20030118 07:00;20030118 08:00;0;4
H2S;uur;�g/m�;20030118 08:00;20030118 09:00;0;5
H2S;uur;�g/m�;20030118 09:00;20030118 10:00;0;5
H2S;uur;�g/m�;20030118 10:00;20030118 11:00;0;4
H2S;uur;�g/m�;20030118 11:00;20030118 12:00;0;5
H2S;uur;�g/m�;20030118 12:00;20030118 13:00;0;6
H2S;uur;�g/m�;20030118 13:00;20030118 14:00;0;5
H2S;uur;�g/m�;20030118 14:00;20030118 15:00;0;4
H2S;uur;�g/m�;20030118 15:00;20030118 16:00;0;4
H2S;uur;�g/m�;20030118 16:00;20030118 17:00;0;6
H2S;uur;�g/m�;20030118 17:00;20030118 18:00;0;7
H2S;uur;�g/m�;20030118 18:00;20030118 19:00;0;3
H2S;uur;�g/m�;20030118 19:00;20030118 20:00;0;1
H2S;uur;�g/m�;20030118 20:00;20030118 21:00;0;2
H2S;uur;�g/m�;20030118 21:00;20030118 22:00;0;1
H2S;uur;�g/m�;20030118 22:00;20030118 23:00;0;1
H2S;uur;�g/m�;20030118 23:00;20030119 00:00;0;1
H2S;uur;�g/m�;20030119 00:00;20030119 01:00;0;1
H2S;uur;�g/m�;20030119 01:00;20030119 02:00;0;1
H2S;uur;�g/m�;20030119 02:00;20030119 03:00;0;0
H2S;uur;�g/m�;20030119 03:00;20030119 04:00;0;1
H2S;uur;�g/m�;20030119 04:00;20030119 05:00;0;1
H2S;uur;�g/m�;20030119 05:00;20030119 06:00;0;1
H2S;uur;�g/m�;20030119 06:00;20030119 07:00;0;0
H2S;uur;�g/m�;20030119 07:00;20030119 08:00;0;1
H2S;uur;�g/m�;20030119 08:00;20030119 09:00;0;1
H2S;uur;�g/m�;20030119 09:00;20030119 10:00;0;1
H2S;uur;�g/m�;20030119 10:00;20030119 11:00;0;0
H2S;uur;�g/m�;20030119 11:00;20030119 12:00;;
H2S;uur;�g/m�;20030119 12:00;20030119 13:00;0;4
H2S;uur;�g/m�;20030119 13:00;20030119 14:00;0;6
H2S;uur;�g/m�;20030119 14:00;20030119 15:00;0;2
H2S;uur;�g/m�;20030119 15:00;20030119 16:00;0;7
H2S;uur;�g/m�;20030119 16:00;20030119 17:00;0;7
H2S;uur;�g/m�;20030119 17:00;20030119 18:00;0;1
H2S;uur;�g/m�;20030119 18:00;20030119 19:00;0;2
H2S;uur;�g/m�;20030119 19:00;20030119 20:00;0;2
H2S;uur;�g/m�;20030119 20:00;20030119 21:00;0;3
H2S;uur;�g/m�;20030119 21:00;20030119 22:00;0;8
H2S;uur;�g/m�;20030119 22:00;20030119 23:00;0;7
H2S;uur;�g/m�;20030119 23:00;20030120 00:00;0;14
H2S;uur;�g/m�;20030120 00:00;20030120 01:00;0;6
H2S;uur;�g/m�;20030120 01:00;20030120 02:00;0;16
H2S;uur;�g/m�;20030120 02:00;20030120 03:00;0;8
H2S;uur;�g/m�;20030120 03:00;20030120 04:00;0;8
H2S;uur;�g/m�;20030120 04:00;20030120 05:00;0;7
H2S;uur;�g/m�;20030120 05:00;20030120 06:00;0;10
H2S;uur;�g/m�;20030120 06:00;20030120 07:00;0;7
H2S;uur;�g/m�;20030120 07:00;20030120 08:00;0;2
H2S;uur;�g/m�;20030120 08:00;20030120 09:00;0;1
H2S;uur;�g/m�;20030120 09:00;20030120 10:00;0;2
H2S;uur;�g/m�;20030120 10:00;20030120 11:00;0;1
H2S;uur;�g/m�;20030120 11:00;20030120 12:00;0;2
H2S;uur;�g/m�;20030120 12:00;20030120 13:00;0;1
H2S;uur;�g/m�;20030120 13:00;20030120 14:00;0;4
H2S;uur;�g/m�;20030120 14:00;20030120 15:00;0;6
H2S;uur;�g/m�;20030120 15:00;20030120 16:00;0;8
H2S;uur;�g/m�;20030120 16:00;20030120 17:00;0;7